Weather reports worldwide

Advertisment
Pontevedra, Spain (8044): temperature & dewpoint: 06.12.2018 00:00:00 - 12.12.2018 00:00:00 (CET)Pontevedra, Spain (8044): wind speed: 06.12.2018 00:00:00 - 12.12.2018 00:00:00 (CET)Pontevedra, Spain (8044): wind direction: 06.12.2018 00:00:00 - 12.12.2018 00:00:00 (CET)Pontevedra, Spain (8044): reduced air pressure: 06.12.2018 00:00:00 - 12.12.2018 00:00:00 (CET)Pontevedra, Spain (8044): visibility: 06.12.2018 00:00:00 - 12.12.2018 00:00:00 (CET)Pontevedra, Spain (8044): precipitation: 06.12.2018 00:00:00 - 12.12.2018 00:00:00 (CET)
Date & Time tt [°C] td [°C] ff [km/h] ff [kn] dd ppp [hPa] vv [km] rr [mm]
12.12.2018 00:00:00 10,8 9,7 4 2 NE 1023,2 20 0,0
11.12.2018 23:00:00 11,1 10,2 2 1 NNE 1023,5 12 0,0
11.12.2018 22:00:00 11,2 10,6 4 2 N 1023,8 2,3 -
11.12.2018 21:00:00 12,4 11,6 2 1 NW 1023,4 4,1 0,0
11.12.2018 20:00:00 12,4 11,5 2 1 E 1023,8 - 0,0
11.12.2018 19:00:00 12,6 11,5 2 1 NE 1023,1 10 -
11.12.2018 18:00:00 12,8 11,5 4 2 S 1023,0 7 0,0
11.12.2018 17:00:00 13,1 11,8 9 5 SW 1022,7 8 0,2
11.12.2018 16:00:00 13,8 10,0 4 2 SSE 1021,9 5 -
11.12.2018 15:00:00 14,3 9,5 5 3 S 1021,6 20 0,0
11.12.2018 14:00:00 15,1 9,2 8 4 S 1021,8 20 0,0
11.12.2018 13:00:00 15,0 8,0 4 2 S 1022,0 20 -
11.12.2018 12:00:00 12,4 6,9 2 1 NW 1022,9 20 0,0
11.12.2018 11:00:00 9,8 5,2 2 1 N 1022,8 20 0,0
11.12.2018 10:00:00 8,7 3,3 9 5 NE 1022,3 20 -
11.12.2018 09:00:00 8,6 2,8 4 2 ENE 1021,1 20 0,0
11.12.2018 08:00:00 9,3 2,4 5 3 NE 1020,8 20 0,0
11.12.2018 07:00:00 9,1 2,6 13 7 ENE 1020,7 15 -
11.12.2018 06:00:00 8,9 2,9 11 6 ENE 1020,7 20 0,0
11.12.2018 05:00:00 9,6 2,7 11 6 NE 1021,0 20 0,0
11.12.2018 04:00:00 9,9 2,7 11 6 ENE 1021,3 20 -
11.12.2018 03:00:00 9,9 3,2 9 5 ENE 1021,4 20 0,0
11.12.2018 02:00:00 10,5 3,3 11 6 NE 1022,0 20 0,0
11.12.2018 01:00:00 10,5 3,7 8 4 ENE 1022,9 20 -
11.12.2018 00:00:00 10,7 3,7 4 2 ENE 1023,1 20 0,0
10.12.2018 23:00:00 11,0 4,9 5 3 E 1023,0 20 0,0
10.12.2018 22:00:00 11,7 4,7 9 5 ENE 1023,3 20 -
10.12.2018 21:00:00 11,6 5,5 8 4 E 1023,7 20 0,0
10.12.2018 20:00:00 12,1 7,2 8 4 ENE 1024,0 20 0,0
10.12.2018 19:00:00 13,0 9,4 5 3 ENE 1024,4 15 -
10.12.2018 18:00:00 13,7 9,7 0 0 N 1024,6 9 0,0
10.12.2018 17:00:00 15,8 9,9 4 2 S 1024,4 20 0,0
10.12.2018 16:00:00 16,0 10,7 2 1 S 1024,4 15 -
10.12.2018 15:00:00 16,2 10,3 4 2 S 1024,7 18 0,0
10.12.2018 14:00:00 15,8 8,8 5 3 SSW 1025,6 20 0,0
10.12.2018 13:00:00 14,5 9,1 4 2 SSW 1026,6 20 -
10.12.2018 12:00:00 12,4 6,7 4 2 SW 1027,6 3,7 0,0
10.12.2018 11:00:00 10,1 5,1 2 1 SSW 1028,0 - 0,0
10.12.2018 10:00:00 8,0 4,8 2 1 SSW 1028,3 20 -
10.12.2018 09:00:00 8,1 3,9 5 3 SSE 1028,4 17 0,0
10.12.2018 08:00:00 7,6 4,2 5 3 SSE 1028,5 16 0,0
10.12.2018 07:00:00 8,8 3,2 5 3 ENE 1028,5 15 -
10.12.2018 06:00:00 8,1 4,3 2 1 ENE 1029,1 20 0,0
10.12.2018 05:00:00 8,4 3,2 5 3 NE 1029,5 20 0,0
10.12.2018 04:00:00 8,0 3,6 5 3 E 1030,4 19 -
10.12.2018 03:00:00 7,6 4,9 4 2 N 1030,8 20 0,0
10.12.2018 02:00:00 7,8 5,1 2 1 NE 1031,3 20 0,0
10.12.2018 01:00:00 8,6 6,0 5 3 NE 1031,8 20 -
10.12.2018 00:00:00 9,1 8,5 2 1 N 1031,8 15 0,0
09.12.2018 23:00:00 9,5 8,7 2 1 SSE 1031,8 16 0,0
09.12.2018 22:00:00 9,9 9,3 2 1 NNE 1031,7 18 -
09.12.2018 21:00:00 10,7 9,9 4 2 NNE 1031,4 14 0,0
09.12.2018 20:00:00 11,9 10,8 5 3 NE 1031,6 18 0,0
09.12.2018 19:00:00 12,8 11,0 8 4 NNE 1031,2 15 -
09.12.2018 18:00:00 14,3 11,8 2 1 SE 1030,9 20 0,0
09.12.2018 17:00:00 15,6 11,8 8 4 W 1030,7 20 0,0
09.12.2018 16:00:00 15,5 12,1 9 5 WNW 1030,6 20 -
09.12.2018 15:00:00 15,5 12,1 5 3 WSW 1030,7 9 0,0
09.12.2018 14:00:00 15,0 11,9 11 6 WNW 1031,3 19 0,0
09.12.2018 13:00:00 15,0 11,8 5 3 W 1031,8 20 -
09.12.2018 12:00:00 14,1 12,3 4 2 S 1032,8 3,2 0,0
09.12.2018 11:00:00 12,0 11,8 2 1 W 1033,0 1,4 0,0
09.12.2018 10:00:00 11,6 11,4 0 0 N 1032,8 5 -
09.12.2018 09:00:00 11,1 10,8 2 1 NE 1032,3 4,4 0,0
09.12.2018 08:00:00 10,9 10,7 2 1 SE 1032,3 3,8 0,0
09.12.2018 07:00:00 10,7 10,5 2 1 SW 1031,9 5 -
09.12.2018 06:00:00 10,8 10,5 2 1 SSW 1032,0 0,2 0,0
09.12.2018 05:00:00 10,7 10,2 2 1 SSW 1032,3 0,5 0,2
09.12.2018 04:00:00 11,0 10,1 0 0 N 1032,3 1,3 -
09.12.2018 03:00:00 11,0 9,7 5 3 NE 1031,8 10 0,0
09.12.2018 02:00:00 11,0 9,9 2 1 NNW 1031,8 6 0,0
09.12.2018 01:00:00 11,1 10,0 4 2 SE 1032,5 7 -
09.12.2018 00:00:00 11,0 9,6 8 4 ENE 1032,5 11 0,0
08.12.2018 23:00:00 11,1 10,0 2 1 SE 1032,4 4,5 0,0
08.12.2018 22:00:00 11,2 9,9 4 2 WNW 1032,3 7 -
08.12.2018 21:00:00 11,2 9,6 2 1 N 1032,3 11 0,0
08.12.2018 20:00:00 11,1 9,5 2 1 SSE 1032,2 8 0,0
08.12.2018 19:00:00 11,4 9,3 8 4 SE 1032,0 10 -
08.12.2018 18:00:00 12,0 9,7 4 2 ESE 1031,7 11 0,0
08.12.2018 17:00:00 12,8 9,8 2 1 S 1031,4 18 0,0
08.12.2018 16:00:00 13,4 8,9 11 6 SW 1031,3 15 -
08.12.2018 15:00:00 14,6 10,2 8 4 S 1031,6 19 0,0
08.12.2018 14:00:00 13,5 9,5 5 3 S 1032,1 19 0,0
08.12.2018 13:00:00 12,0 9,6 4 2 N 1032,3 15 -
08.12.2018 12:00:00 10,1 8,9 2 1 NNW 1032,8 18 0,0
08.12.2018 11:00:00 8,1 7,2 5 3 ENE 1032,9 19 0,0
08.12.2018 10:00:00 6,8 6,1 4 2 S 1032,7 15 -
08.12.2018 09:00:00 6,8 6,2 4 2 NE 1032,4 19 0,0
08.12.2018 08:00:00 6,7 6,0 5 3 ESE 1032,3 16 0,0
08.12.2018 07:00:00 6,2 5,8 11 6 ENE 1031,9 12 -
08.12.2018 06:00:00 6,5 6,1 11 6 NE 1031,5 18 0,0
08.12.2018 05:00:00 6,7 6,1 8 4 ENE 1031,3 16 0,0
08.12.2018 04:00:00 7,2 6,5 13 7 ENE 1032,1 13 -
08.12.2018 03:00:00 7,3 6,7 9 5 ENE 1031,9 16 0,0
08.12.2018 02:00:00 7,5 7,1 9 5 ENE 1031,6 15 0,0
08.12.2018 01:00:00 7,8 7,4 11 6 ENE 1031,7 13 -
08.12.2018 00:00:00 8,7 8,4 9 5 ENE 1031,5 11 0,0
07.12.2018 23:00:00 9,5 9,0 9 5 ENE 1031,6 11 0,0
07.12.2018 22:00:00 10,4 9,6 5 3 NNE 1031,7 10 -
07.12.2018 21:00:00 11,0 10,4 4 2 NE 1031,1 11 0,0
07.12.2018 20:00:00 11,6 11,1 2 1 SE 1030,8 10 0,0
07.12.2018 19:00:00 12,1 11,9 2 1 S 1030,3 12 -
07.12.2018 18:00:00 12,8 12,8 4 2 WSW 1029,7 6 0,0
07.12.2018 17:00:00 13,0 13,0 4 2 S 1029,1 6 0,0
07.12.2018 16:00:00 12,7 12,7 13 7 WSW 1029,0 0,5 -
07.12.2018 15:00:00 12,8 12,8 5 3 SSW 1028,7 0,7 0,0
07.12.2018 14:00:00 12,7 12,5 8 4 S 1028,8 1,1 0,0
07.12.2018 13:00:00 12,4 12,2 11 6 S 1029,2 2,0 -
07.12.2018 12:00:00 12,4 11,9 15 8 S 1029,4 2,3 0,0
07.12.2018 11:00:00 11,8 11,3 4 2 S 1029,2 19 0,0
07.12.2018 10:00:00 11,4 11,1 5 3 NW 1029,2 8 -
07.12.2018 09:00:00 11,0 10,7 4 2 N 1029,3 6 0,0
07.12.2018 08:00:00 11,1 11,1 4 2 ESE 1029,3 10 0,0
07.12.2018 07:00:00 10,8 10,5 4 2 NNW 1028,9 3,0 -
07.12.2018 06:00:00 11,1 10,3 8 4 S 1029,8 1,9 0,0
07.12.2018 05:00:00 11,7 10,1 4 2 SW 1028,4 17 0,0
07.12.2018 04:00:00 11,7 10,1 5 3 SSE 1028,9 17 -
07.12.2018 03:00:00 11,7 10,3 4 2 SSW 1029,2 19 0,0
07.12.2018 02:00:00 11,6 9,8 11 6 SE 1029,2 15 0,0
07.12.2018 01:00:00 11,4 10,5 2 1 SSE 1029,8 11 -
07.12.2018 00:00:00 11,8 10,9 9 5 SE 1029,8 11 0,0
06.12.2018 23:00:00 11,8 11,0 4 2 S 1030,1 11 0,0
06.12.2018 22:00:00 11,9 11,4 4 2 SSE 1030,2 - -
06.12.2018 21:00:00 12,0 11,5 4 2 ESE 1030,3 4,3 0,0
06.12.2018 20:00:00 11,9 11,4 2 1 SE 1030,3 3,7 0,0
06.12.2018 19:00:00 11,9 11,0 4 2 S 1030,1 8 -
06.12.2018 18:00:00 13,4 11,6 5 3 SW 1029,6 9 0,0
06.12.2018 17:00:00 14,6 12,3 8 4 SW 1029,7 15 0,0
06.12.2018 16:00:00 15,1 12,0 9 5 SW 1029,5 10 -
06.12.2018 15:00:00 15,6 11,0 4 2 SW 1030,0 20 0,0
06.12.2018 14:00:00 15,4 11,2 5 3 SSW 1030,5 20 0,0
06.12.2018 13:00:00 15,3 12,4 5 3 S 1031,0 20 -
06.12.2018 12:00:00 13,2 13,0 4 2 S 1031,5 16 0,0
06.12.2018 11:00:00 12,0 12,0 2 1 SW 1031,4 - 0,0
06.12.2018 10:00:00 11,1 11,1 4 2 E 1030,8 0,5 -
06.12.2018 09:00:00 11,1 10,8 0 0 N 1030,2 6 0,0
06.12.2018 08:00:00 11,6 11,3 4 2 ESE 1029,8 2,1 0,0
06.12.2018 07:00:00 11,8 11,8 0 0 N 1029,5 5 -
06.12.2018 06:00:00 12,2 12,0 4 2 SE 1029,2 3,1 0,0
06.12.2018 05:00:00 13,0 12,8 4 2 S 1029,2 2,0 0,0
06.12.2018 04:00:00 13,3 13,1 4 2 SW 1029,4 1,6 -
06.12.2018 03:00:00 13,4 13,2 4 2 S 1028,6 2,5 0,0
06.12.2018 02:00:00 13,6 13,4 4 2 S 1028,5 9 0,0
06.12.2018 01:00:00 13,6 13,4 4 2 S 1028,5 2,9 -
06.12.2018 00:00:00 13,6 13,4 5 3 S 1028,5 - 0,0

tt = temperature
td = dewpoint
ff = wind speed
dd = wind direction
ppp = reduced air pressure
vv = visibility
rr = precipitation

Next stations